STARLINK-72 (44263 NORAD) Tracking and Keplerian Element Data

This shows tracking and keplerian element data for the satellite.

Feedback or suggestion? Click here.




ElementValue
Catalog44263
NameSTARLINK-72
Epoch Orbit7817
Epoch Day289.47516335
Epoch Year2020
RAAN318.7786
Inclination52.982
Eccentricity0.000333
Argument of Perigee292.8532
Mean Anonmoly67.5533
Mean Motion16.49183723
Decay Rate0.12398314
L11 44263U 19029AE 20289.47516335 .12398314 12643-4 16439-3 0 9992
L22 44263 52.9820 318.7786 0003330 292.8532 67.5533 16.49183723 78173



Live tracking and technical data element details for STARLINK-72 (NORAD 44263). STARLINK-72 can be tracked NOW for your location showing map with azimuth and elevation plus other details from your city location.







IsCatalogInMostPopularTable: catalog: 44263, numindb: 317
Update: records affected: 1



GetName: 44263 STARLINK-72

Hit Count: updated at: Sat, 07 Mar 2026 07:05:10 GMT